SCP
0 0 0 0 0 0 0 0 0 0 0 0 0 0 0 0 0 0 0 0 0 0 0 0 0 0 0 0 0 0 0 0 0 0 0 0 0 0
0 0 0 0 0 0 0 0 0 0 0 0 0 0 0 0 0 0 0 0 0 0 0 0 0 0 0 0 0 0 0 0 0 0 0 0 0 0
0 0 0 0 0 0 0 0 0 0 0 0 0 0 0 0 0 0 0 0 0 0 0 0 0 0 0 0 0 0 0 0 0 0 0 0 0 0
0 0 0 0 0 0 0 0 0 0 0 0 0 0 0 0 0 0 0 0 0 0 0 0 0 0 0 0 0 0 0 0 0 0 0 0 0 0
0 0 0 0 0 0 0 0 0 0 0 0 0 0 0 0 0 0 0 0 0 0 0 0 0 0 0 0 0 0 0 0 0 0 0 0 0 0
0 0 0 0 0 0 0 0 0 0 0 0 0 0 0 0 0 0 0 0 0 0 0 0 0 0 0 0 0 0 0 0 0 0 0 0 0 0
0 0 0 0 0 0 0 0 0 0 0 0 0 0 0 0 0 0 0 0 0 0 0 0 0 0 0 0 0 0 0 0 0 0 0 0 0 0
0 0 0 0 0 0 0 0 0 0 0 0 0 0 0 0 0 0 0 0 0 0 0 0 0 0 0 0 0 0 0 0 0 0 0 0 0 0
0 0 0 0 0 0 0 0 0 0 0 0 0 0 0 0 0 0 0 0 0 0 0 0 0 0 0 0 0 0 0 0 0 0 0 0 0 0
0 0 0 0 0 0 0 0 0 0 0 0 0 0 0 0 0 0 0 0 0 0 0 0 0 0 0 0 0 0 0 0 0 0 0 0 0 0
-0 -0 0 0 0 0 0 0 0 0 0 0 0 0 0 0 0 0 0 0 0 0 0 -0 0 0 0 0 0 0 0 0 0 0 0 0 0 0
0 0 0 0 0 0 0 0 0 0 0 0 0 0 0 0 0 0 0 0 0 0 0 0 0 0 0 0 0 0 0 0 0 0 0 0 0 0
0 0 0 0 0 0 0 0 0 0 0 0 0 0 0 0 0 0 0 0 0 0 0 0 0 0 0 0 0 0 0 0 0 0 0 0 0 0
0 0 0 0 0 0 0 0 0 0 0 0 0 0 0 0 0 0 0 0 0 0 0 0 0 0 0 0 0 0 0 0 0 0 0 0 0 0
0 0 0 0 0 0 0 0 0 0 0 0 0 0 0 0 0 0 0 0 0 0 0 0 0 0 0 0 0 0 0 0 0 0 0 0 -0 0
0 0 0 0 0 0 0 0 0 0 0 0 0 0 0 0 0 0 0 0 0 0 0 0 0 0 0 0 0 0 0 -0 -0 0 0 0 0 0
0 0 0 0 0 0 0 0 0 0 0 0 0 0 0 0 0 0 0 0 0 0 0 0 0 0 0 0 0 0 -0 -0 -0 -0 0 0 0 0
0 0 0 0 0 0 0 0 0 0 0 0 0 0 0 0 0 0 0 0 0 0 0 0 0 0 0 0 0 -0 -0 -0 -0 -0 0 0 0 0
0 0 0 0 0 0 0 0 0 0 0 0 0 0 0 0 0 0 0 0 0 0 0 0 0 0 0 0 0 0 0 0 0 0 0 0 0 0
0 0 0 0 0 0 0 0 0 0 0 0 0 0 0 0 0 0 0 0 0 0 0 0 0 0 0 0 0 0 0 0 0 0 0 0 0 0
0 0 0 0 0 0 0 0 0 0 0 0 0 0 0 0 0 0 0 0 0 0 0 0 0 0 0 0 0 0 0 0 0 0 -0 -0 0 0
0 0 0 0 0 0 0 0 0 0 0 0 0 0 0 0 0 0 0 0 0 0 0 0 0 0 0 0 0 0 0 0 0 0 0 0 0 0
0 0 0 0 0 0 0 0 0 0 0 0 0 0 0 0 0 0 0 0 0 0 0 0 0 0 0 0 0 0 0 0 0 0 0 0 0 0
Wind_Speed
3 3 2 1 1 1 1 2 2 2 2 3 2 3 2 2 3 2 2 2 1 1 1 1 1 1 1 1 2 3 5 6 7 8 10 12 14 16
3 3 2 1 1 0 1 1 2 3 2 2 2 2 3 3 5 4 3 4 3 1 0 1 1 0 0 2 3 4 6 7 9 10 12 14 15 17
3 4 3 2 2 1 1 2 2 3 4 2 3 3 5 5 4 4 4 4 4 4 2 1 1 1 2 3 4 6 7 8 10 12 13 15 17 18
5 5 4 4 3 2 3 3 3 3 5 4 3 4 5 4 4 5 4 5 4 6 5 3 2 2 3 4 5 6 8 9 10 12 14 16 18 20
6 6 5 5 5 4 5 5 4 6 5 5 4 4 4 4 4 4 4 4 4 4 5 4 4 4 4 5 6 7 8 9 11 12 14 16 18 20
7 6 5 5 5 5 6 6 7 8 7 6 4 4 3 3 4 4 4 3 3 4 4 4 4 4 5 5 6 7 8 10 11 13 14 16 17 19
8 7 7 8 9 7 7 7 8 7 5 5 4 4 4 4 4 3 3 3 3 3 3 3 3 3 3 4 6 9 10 10 12 13 14 16 16 17
7 6 7 9 11 13 14 12 9 8 6 5 3 4 3 3 3 3 3 4 4 4 3 3 2 3 3 2 6 9 10 11 12 13 14 15 15 15
6 6 6 7 8 7 11 13 12 11 8 5 4 2 2 2 3 4 4 2 1 4 3 3 3 3 3 3 7 9 10 11 12 13 14 14 14 13
6 6 7 6 6 7 8 8 7 6 6 4 3 1 1 1 1 1 1 2 2 3 3 3 4 4 4 3 6 9 10 10 11 12 13 13 13 12
6 6 7 7 9 11 9 8 7 6 7 10 8 7 6 6 4 4 4 4 3 4 3 3 4 4 4 4 5 9 9 9 10 10 11 11 11 9
5 6 9 9 10 11 8 7 7 5 5 7 8 9 7 8 8 4 2 2 1 3 4 3 4 4 5 4 4 5 6 7 9 8 9 10 11 7
4 3 4 10 11 11 9 6 5 5 5 6 5 5 5 5 5 4 3 2 2 1 3 2 3 3 3 4 4 4 5 5 5 5 6 8 10 7
5 3 4 9 10 9 7 8 10 8 5 5 5 4 4 4 4 5 5 4 3 2 3 2 2 2 3 4 4 5 4 5 6 6 5 5 5 7
5 8 8 9 8 6 8 9 8 5 5 5 4 3 2 2 3 4 6 5 5 5 6 5 3 2 2 2 4 4 4 5 6 6 6 5 4 3
5 6 7 7 6 5 5 5 4 4 4 3 2 2 3 4 4 4 4 4 5 5 7 7 6 4 3 3 3 4 4 5 6 6 5 6 6 5
6 3 3 3 3 3 3 3 3 3 3 2 3 3 4 4 3 3 3 4 4 3 5 6 5 3 3 3 3 4 4 4 5 6 5 5 6 7
7 4 3 3 3 3 3 2 2 3 2 3 3 3 3 3 3 3 3 3 3 3 3 4 5 6 6 4 3 3 4 4 5 6 5 5 6 6
5 4 4 3 3 4 4 4 3 3 3 3 3 3 2 2 2 3 3 3 3 3 3 3 4 4 4 5 7 4 3 4 5 5 5 4 4 5
3 4 4 4 4 5 5 4 4 3 3 3 3 2 2 2 2 2 2 2 2 3 4 4 4 3 1 2 3 5 6 3 3 4 4 3 2 2
4 4 4 4 4 5 6 6 5 5 4 4 3 3 3 3 2 2 2 3 3 3 3 3 4 5 1 2 3 5 5 5 3 1 3 3 4 4
5 5 5 5 5 6 6 6 5 5 5 4 4 4 3 3 3 3 2 2 2 1 1 3 5 5 4 4 3 4 5 6 6 7 3 1 1 2
6 6 5 6 6 6 6 7 7 6 5 5 5 4 4 3 3 3 3 3 2 2 2 3 4 4 3 3 3 3 5 5 5 5 5 7 5 3
Wind_Direction
186 185 185 188 187 211 206 180 162 128 60 12 30 15 35 64 53 66 51 34 44 59 86 110 125 141 165 211 240 256 263 265 265 265 264 262 260 256
176 164 145 128 118 228 192 167 149 135 109 34 27 15 27 50 47 48 36 38 34 29 53 75 61 42 292 283 282 280 279 275 271 267 263 261 259 257
137 133 121 111 96 87 96 90 83 107 110 62 27 23 40 39 25 32 37 39 29 36 46 41 7 330 312 302 297 293 287 283 280 276 271 266 261 258
113 108 103 101 87 80 90 91 87 94 110 97 38 26 33 30 32 36 31 43 40 43 46 37 2 331 311 300 296 294 291 288 285 283 279 273 267 261
99 99 97 95 81 72 75 79 80 81 82 90 59 28 26 20 23 25 33 25 28 37 41 32 10 346 326 309 304 302 300 296 292 287 283 278 271 264
81 83 84 87 89 84 81 83 90 85 79 78 62 33 20 356 25 16 10 6 12 12 14 13 9 4 350 338 328 320 314 307 301 296 290 284 274 265
74 70 72 78 79 81 90 91 93 90 82 77 64 46 25 17 4 345 5 352 358 358 345 348 348 346 344 346 343 334 326 318 312 308 302 294 285 272
83 69 66 60 69 73 76 79 90 100 98 86 71 63 32 11 357 11 21 27 359 337 352 329 338 325 314 318 335 338 334 329 324 319 314 308 299 285
81 73 71 60 67 74 68 65 64 72 91 110 95 81 57 8 24 26 26 48 1 317 357 332 324 311 301 304 328 338 337 335 331 327 324 321 316 304
87 89 85 66 73 88 78 63 51 45 54 73 104 107 101 130 110 92 328 13 334 331 28 354 318 310 307 314 326 334 337 338 337 334 333 334 333 325
78 80 88 79 83 90 83 72 52 26 39 59 68 68 63 67 78 54 36 43 3 320 352 11 317 315 316 317 326 336 336 338 340 340 342 348 350 351
77 69 81 93 88 88 88 83 68 37 43 49 44 35 36 39 49 68 92 82 41 333 325 357 331 342 333 316 324 335 336 334 339 343 345 351 356 2
112 97 87 96 92 90 89 87 97 97 72 67 53 35 27 27 23 26 44 104 95 358 310 354 347 346 337 313 323 333 344 341 339 341 347 354 1 10
140 141 126 108 98 94 86 91 90 84 72 63 53 35 26 15 3 12 27 45 83 76 343 20 27 350 353 349 328 325 335 351 352 349 349 356 8 26
152 156 141 116 97 83 85 89 84 81 77 69 57 32 4 359 13 20 19 25 31 28 21 21 28 13 40 11 334 331 333 340 352 355 359 3 2 8
129 140 123 103 89 83 75 72 78 96 102 96 81 36 24 31 29 25 27 20 29 2 357 10 20 37 29 10 14 357 350 343 342 346 354 7 12 18
130 100 90 88 84 74 71 75 78 83 83 78 70 52 38 37 21 15 36 43 45 10 349 346 355 20 62 52 25 1 352 350 347 346 354 9 18 27
131 130 142 145 148 149 144 129 110 111 114 104 85 74 63 55 32 18 35 49 41 13 353 342 356 8 8 3 31 10 355 346 340 351 1 10 16 24
131 149 161 171 173 167 165 162 159 154 142 124 107 92 83 72 60 37 28 36 32 18 356 352 16 38 30 351 324 5 10 343 351 360 4 11 12 13
152 164 177 180 175 169 169 167 159 149 141 138 126 111 100 91 73 54 46 53 48 31 16 8 9 7 348 268 294 321 2 9 358 355 349 356 11 22
178 179 179 174 173 171 171 170 163 160 159 153 146 141 131 114 96 79 74 67 72 55 36 354 312 325 305 36 16 345 333 354 20 355 346 5 4 5
180 185 185 178 176 173 171 169 165 163 161 159 161 160 152 135 126 118 109 95 84 86 43 339 345 11 33 39 9 332 333 341 353 9 28 50 59 12
180 184 184 181 180 177 172 173 172 174 173 169 169 171 165 152 147 144 139 124 119 95 50 11 3 13 15 21 6 343 345 347 350 357 350 1 32 50